Other Public Products
Issued by NWS Grand Forks, ND

Home | Current Version | Previous Version | Graphics & Text | Print | Product List | Glossary On
Versions: 1 2 3 4 5 6 7 8 9 10 11 12 13 14 15 16 17 18 19 20 21 22 23 24 25 26 27 28 29 30 31 32 33 34 35 36 37 38 39 40 41 42 43 44 45 46 47 48 49 50
000
FPUS83 KFGF 051910
OPUFGF
PRAIRIE TO PINES WEATHER ROUNDUP
NATIONAL WEATHER SERVICE EASTERN NORTH DAKOTA/GRAND FORKS ND
100 PM CST MON DEC 05 2016

 **SATELLITE DATA USED TO AUGMENT SKY COVER AT AUTOMATED STATIONS**
 *****  WEATHER ACROSS EASTERN NORTH DAKOTA  *****

CITY           SKY/WX    TMP DP  RH WIND       PRES   REMARKS
GRAND FORKS    CLOUDY    30  26  85 NE12      29.63F WCI  20
GRAND FORKS AF CLOUDY    28  27  98 E9        29.63F WCI  19
GRAND CITY NWS   N/A     30 N/A N/A E10         N/A  WCI  21
BUXTON         NOT AVBL
DEVILS LAKE    CLOUDY    26  25  96 E9        29.61F FOG     WCI  17
FARGO          CLOUDY    34  28  79 E10       29.55F
WAHPETON ARPT  PTCLDY    34  30  86 E10       29.53F
$$

 *****  WEATHER ACROSS CENTRAL AND WESTERN NORTH DAKOTA  *****

CITY           SKY/WX    TMP DP  RH WIND       PRES   REMARKS
JAMESTOWN      CLOUDY    29  27  92 N10       29.55F WCI  20
BISMARCK       HVY SNOW  31  29  92 NW15      29.58R VSB 1/4 WCI  20
MINOT          CLOUDY    24  18  77 SW15      29.56R WCI  11
MINOT AFB      CLOUDY    23  19  87 W12       29.54S WCI  11
GARRISON         N/A     25  21  85 W16       29.59R WCI  12
WILLISTON      LGT SNOW  20  14  77 NW35G44   29.71R VSB 3/4 WCI   0
DICKINSON      SNOW      19  15  84 NW33G40   29.63F VSB 1/4 WCI  -1
HETTINGER      MIX PCPN  21  17  84 NW31G38   29.67R FOG     WCI   2
$$

 *****  OTHER OBSERVATIONS NORTHEAST NORTH DAKOTA  *****

CITY           SKY/WX    TMP DP  RH WIND       PRES   REMARKS
WALHALLA         N/A     27  27 100 E10       29.68S WCI  17
LANGDON        FOG       27  27 100 MISG      29.63R VSB<1/4
CAVALIER         N/A     28  27  93 E8        29.68S WCI  20
GRAFTON        CLOUDY    28  28 100 E12       29.68F WCI  18
CANDO          CLOUDY    27  27 100 SE14      29.63F WCI  15
FORT TOTTEN      N/A     26  26 100 SE2       29.95S
ROLLA          MOCLDY    23  23 100 SE10      29.59F WCI  12
RUGBY          LGT SNOW  25  25 100 SE12      29.57F VSB 3/4 WCI  14
 ***** THE ABOVE OBSERVATIONS ARE NON NWS ARE NOT QUALITY
        CONTROLLED AND MAY MIS-REPORT RAIN FOR SNOW...
$$

 *****  OTHER OBSERVATIONS SOUTHEAST NORTH DAKOTA *****

CITY           SKY/WX    TMP DP  RH WIND       PRES   REMARKS
COOPERSTOWN    CLOUDY    27  27 100 NE9       29.60S FOG     WCI  17
VALLEY CITY    MOCLDY    28  28 100 NE8       29.57F WCI  20
OAKES          NOT AVBL
GWINNER        CLOUDY    34  32  93 E10       29.52F
SHEYENNE NWR     N/A     35  29  80 E9        29.95S
BUFFALO        NOT AVBL
WYNDMERE       NOT AVBL
 ***** THE ABOVE OBSERVATIONS ARE NON NWS ARE NOT QUALITY
       CONTROLLED AND MAY MIS-REPORT RAIN FOR SNOW...
$$

  *****  WEATHER ACROSS NORTHERN MINNESOTA  *****

CITY           SKY/WX    TMP DP  RH WIND       PRES   REMARKS
FLAG ISLAND    CLOUDY    30  25  80 E3        29.72S
WARROAD        CLOUDY    30  27  86 E9        29.71F WCI  22
ROSEAU         CLOUDY    30  25  80 E13       29.70F WCI  20
HALLOCK        CLOUDY    30  27  86 E12       29.67S WCI  21
THF RVR FALLS  CLOUDY    30  27  88 E16G22    29.65F WCI  19
HALSTAD          N/A     32  27  81 E9          N/A  WCI  24
FOSSTON        CLOUDY    28  27  93 NE8       29.62F WCI  20
BAUDETTE       CLOUDY    30  25  81 E8        29.72F WCI  22
WASKISH        CLOUDY    30  27  86 E12       29.70F WCI  21
CROOKSTON      CLOUDY    30  28  93 E15       29.64F WCI  19
$$
  *****  WEATHER ACROSS CENTRAL AND WEST MINNESOTA  *****

CITY           SKY/WX    TMP DP  RH WIND       PRES   REMARKS
BEMIDJI        CLOUDY    29  27  90 E9        29.66F WCI  21
PARK RAPIDS    CLOUDY    31  25  78 E7        29.61F WCI  24
WADENA         MOSUNNY   30  28  93 E9        29.59F WCI  22
DETROIT LAKES  MOSUNNY   32  28  86 E9        29.58F WCI  24
MOORHEAD       CLOUDY    36  28  75 E10       29.56F
FERGUS FALLS   CLOUDY    36  28  75 E13G18    29.57F
ELBOW LAKE     FAIR      35  32  88 SE15      29.54F
MORRIS MN      MOSUNNY   36  32  87 SE15      29.53S
STAPLES        MOSUNNY   30  28  93 E8        29.62F WCI  23
WHEATON        MOSUNNY   36  34  93 SE10      29.56R
$$
  *****  WEATHER ELSEWHERE ACROSS MINNESOTA  *****

CITY           SKY/WX    TMP DP  RH WIND       PRES   REMARKS
DULUTH         MOSUNNY   32  28  85 SE7       29.75F
INTRNTL FALLS  CLOUDY    31  24  75 CALM      29.74S
ELY            CLOUDY    28  25  86 CALM      29.75S
CLOQUET        CLOUDY    34  28  80 NE7       29.72F
BRAINERD       CLOUDY    32  27  81 E12G21    29.65F WCI  23
HIBBING        MOSUNNY   29  26  89 E8        29.73F WCI  21
ALEXANDRIA     CLOUDY    34  32  92 E16       29.56F WCI  24
SAINT CLOUD    CLOUDY    35  31  85 E9        29.63F
MINNEAPOLIS    LGT RAIN  37  32  82 SE18G28   29.69F
$$

  *****  WEATHER ACROSS SOUTH DAKOTA  *****

CITY           SKY/WX    TMP DP  RH WIND       PRES   REMARKS
SIOUX FALLS    MOSUNNY   45  34  65 S17G24    29.50F
BROOKINGS      MOSUNNY   38  32  79 S15       29.45F
WATERTOWN      CLOUDY    37  31  78 SE12      29.45F
HURON          SUNNY     43  31  62 SW8       29.45F
SISSETON         N/A     33  31  92 SE8       29.50F
ABERDEEN       CLOUDY    39  29  67 NE3       29.47F
MITCHELL       MOSUNNY   46  32  58 SW10      29.46F
PIERRE         LGT RAIN  33  28  81 NW32G40   29.54R WCI  19
MOBRIDGE       SNOW      32  28  85 NW23G31   29.51F VSB 1/4 WCI  19
RAPID CITY     CLOUDY    27  16  63 NW41G51   29.65R WCI   8
$$

  *****  SOME WEATHER IN NEARBY STATES *****

CITY           SKY/WX    TMP DP  RH WIND       PRES   REMARKS
GLASGOW MT     CLOUDY    11   2  67 NW33G40   29.92R WCI -12
GREAT FALLS MT LGT SNOW  13   5  70 NW9       30.03S WCI   1
CHEYENNE WY    SUNNY     31   6  35 NW29G45   29.69R WCI  16
SCOTTSBLUFF NE SUNNY     40  24  53 NW25G33   29.66R
OMAHA NE       PTSUNNY   47  35  63 S22       29.67F
DES MOINES IA  PTSUNNY   50  36  58 S18       29.79F
DAVENPORT IA   CLOUDY    33  32  96 S17       29.94F WCI  22
CHICAGO IL     NOT AVBL
EAU CLAIRE WI  CLOUDY    35  32  88 S8        29.78F
LA CROSSE WI   PTSUNNY   38  33  82 S15       29.84F
$$

  *****  SOME NATIONAL WEATHER *****

CITY           SKY/WX    TMP DP  RH WIND       PRES   REMARKS
LA GUARDIA NY  MOSUNNY   50  35  56 NW18      29.96R
RALEIGH NC     MOSUNNY   58  42  55 NE8       30.00F
ATLANTA GA     RAIN      50  49  96 N8        29.94R FOG
NEW ORLEANS LA CLOUDY    60  60 100 N9        29.78F
OKLAHOMA CITY  CLOUDY    46  41  82 S20       29.78F
ALBUQUERQUE NM CLOUDY    44  16  32 S7        29.86F
SALT LAKE CITY MOSUNNY   32   9  38 N14       30.06S WCI  22
LOS ANGELES CA PTSUNNY   61  53  75 VRB3      29.98F HAZE
BOISE ID       SUNNY     31  16  54 CALM      30.15F
SEATTLE WA     CLOUDY    35  34  96 S8        30.06F
$$

*** WEATHER ACROSS MANITOBA...SASKATCHEWAN AND ONTARIO ***
                ***ONTARIO***

CITY           SKY/WX    TMP DP  RH WIND       PRES   REMARKS
GERALDTON      CLOUDY    30  28  93 NW6       29.73R WCI  24
THUNDER BAY    CLOUDY    34  30  86 W6        29.79F
SIOUX LOOKOUT  CLOUDY    32  28  86 SW3       29.73R
TORONTO        PTSUNNY   41  30  65 W20G28    29.94R
BIG TROUT LK   CLOUDY    25  23  93 VRB2      29.76R
PICKLE LAKE    FLURRIES  27  25  93 VRB2      29.73R
DRYDEN         CLOUDY    30  28  93 W8        29.72S WCI  23
KENORA         CLOUDY    30  25  80 NW5       29.72F
$$
                *** MANITOBA***

CITY           SKY/WX    TMP DP  RH WIND       PRES   REMARKS
BRANDON        SNOW      25  23  93 E17       29.65F VSB 1/2 WCI  11
DAUPHIN        FOG       23  23 100 CALM      29.74S VSB 3/4
ISLAND LAKE    FLURRIES  27  23  86 CALM      29.76R
PILOT MOUND      N/A     25  25 100 E10         N/A  WCI  15
THE PAS        FLURRIES  23  18  80 W7        29.77R WCI  15
THOMPSON       FLURRIES  23  21  93 NE2       29.77R
WINNIPEG       CLOUDY    30  27  86 E9        29.73R WCI  22
LYNN LAKE      LGT SNOW  25  25 100 VRB2      29.74R
CHURCHILL      FLURRIES  23  21  93 E2        29.86S
GILLAM         FLURRIES  18  16  93 NE3       29.81R
$$
                ***SASKATCHEWAN***

CITY           SKY/WX    TMP DP  RH WIND       PRES   REMARKS
ESTEVAN        SNOW      19  18  93 N24       29.64R VSB 1/2 WCI   2
KINDERSLEY     CLOUDY     5  -2  72 NW18G28   29.98R BLWGSNOWWCI -15
LLOYDMINSTER   PTSUNNY    3  -4  72 NW24      30.01R WCI -20
PRINCE ALBERT  PTSUNNY   14   5  67 N14G22    29.88R WCI  -1
REGINA         LGT SNOW  18  12  79 NW24G31   29.79S BLWGSNOWWCI   0
YORKTON        CLOUDY    21  19  93 N14       29.72F WCC1F1C2F2C3F3C4F4C5F5C6F6C7F7C8F8C9F9CaFaCbFbCcFcCdFdCe!



USA.gov is the U.S. government's official web portal to all federal, state and local government web resources and services.